{"data":{"norad_id":68105,"intl_designator":"2026-044E","name":"STARLINK-37021","alt_names":[],"object_type":"PAYLOAD","status":"ACTIVE","operator":null,"country":"US","launch_date":"2026-03-08","launch_site_code":"AFWTR","launch_vehicle":null,"mission":null,"orbit_class":"UNKNOWN","rcs_meters":null,"size_class":null,"mass_kg":null,"dimensions":null,"purposes":["comms"],"wikipedia_slug":null,"has_3d_model":false,"image_url":null,"decayed_at":null,"tle_current":{"epoch":"2026-05-24T20:37:32.110752Z","epoch_age_seconds":97753,"freshness":"FRESH","line1":"1 68105U 26044E   26144.85939943  .00024845  00000+0  76920-3 0  9992","line2":"2 68105  97.2849 105.4504 0001681 100.9520 259.1912 15.33451142 13252","mean_motion":15.33451142,"eccentricity":0.0001681,"inclination_deg":97.2849,"raan_deg":105.4504,"arg_perigee_deg":100.952,"mean_anomaly_deg":259.1912,"bstar":0.0007692,"rev_number":1325,"period_min":93.90582853014,"perigee_km":464.37448070296,"apogee_km":466.67531983383,"semimajor_km":6843.6619002684,"source":"CELESTRAK","updated_at":"2026-05-25T13:38:21.841410Z"}}}